Location: *
(60.1759°S, 155.0663°W)
Time: 20:55:48
(UTC+00:00)

Cosmos 2034 Rocket - Pass Details

Date: 17 September 2019
Orbit: 957 x 1001 km, 82.9° (Epoch: 18 October)

Event Time Altitude Azimuth Distance (km) Brightness Sun altitude
Exits shadow 12:33:29 45° 20° (NNE) 1,325 4.4 -26.3°
Maximum altitude 12:35:25 68° 83° (E) 1,073 4.2 -26.1°
Drops below altitude 10° 12:41:46 10° 164° (SSE) 2,793 7.2 -25.6°
Sets 12:44:20 0° 166° (SSE) 3,753 8.0 -25.4°
